Location: Eaton Estates
(41.3089°N, 82.0057°W)
Time: 12:42:00
(UTC+00:00)

Cosmos 1300 - Pass Details

Date: 17 June 2021
Orbit: 509 x 513 km, 82.5° (Epoch: 26 July)

Event Time Altitude Azimuth Distance (km) Brightness Sun altitude
Rises 04:24:15 0° 339° (NNW) 2,633 7.7 -23.6°
Reaches altitude 10° 04:26:37 10° 327° (NNW) 1,741 6.3 -23.7°
Maximum altitude 04:29:50 26° 270° (W) 1,034 4.3 -23.9°
Enters shadow 04:29:54 26° 268° (W) 1,034 4.3 -23.9°
